RH
22 22 23 23 23 25 27 29 31 30 31 29 26 16 19 21 14 20 25 26 26 28 29 32 35 38 40 40 38 36 35 35 39 37 37 39 40 42 43 44 43 42 42 41
24 23 24 25 26 26 29 30 32 32 33 32 21 14 14 14 15 18 24 27 28 29 31 34 39 41 40 40 40 40 36 38 41 40 39 38 37 36 36 37 39 34 34 35
26 23 25 26 28 31 30 32 33 36 30 28 26 17 15 17 17 18 21 27 30 32 35 37 39 40 43 45 44 43 40 39 41 39 38 39 38 35 34 33 33 32 30 29
25 23 26 28 30 31 32 32 33 34 38 40 28 24 18 19 21 22 24 29 32 35 38 38 42 46 47 46 46 47 46 43 44 47 47 44 39 36 33 34 37 37 33 31
28 23 25 28 29 32 35 32 33 33 38 35 38 42 22 24 23 23 26 31 36 38 41 43 46 48 50 51 50 50 51 48 45 46 48 49 47 45 45 46 46 43 35 33
27 25 24 28 29 30 33 33 31 35 37 57 37 34 28 28 23 24 25 31 38 40 42 45 48 51 52 54 55 54 54 53 55 54 54 52 50 50 49 46 45 42 39 36
32 27 25 28 33 36 37 40 47 50 53 34 37 47 30 28 27 27 26 32 40 41 43 46 51 54 58 61 60 59 57 57 61 60 60 59 56 50 50 48 46 46 47 44
33 33 31 34 43 44 44 44 47 47 40 35 48 48 34 29 34 33 33 34 41 43 45 48 53 54 55 58 62 64 66 64 59 62 64 66 63 54 48 46 48 50 53 55
41 38 37 45 49 45 50 51 49 54 54 56 46 46 42 38 37 39 42 38 40 44 46 49 53 56 59 61 63 69 74 76 69 72 74 70 63 56 50 47 56 57 59 64
47 52 51 51 50 49 55 56 55 57 54 51 40 42 46 42 46 49 51 50 45 45 47 51 55 58 63 66 75 80 87 87 84 85 82 77 69 57 52 52 58 67 70 79
50 60 61 59 56 57 62 62 59 58 60 57 56 43 46 49 50 53 59 60 52 51 51 54 57 66 69 90 91 91 94 95 90 86 89 82 60 62 56 59 70 83 90 83
60 61 69 66 65 66 70 70 70 71 70 92 76 65 54 50 56 64 70 69 66 73 68 66 70 90 90 96 95 97 97 96 95 98 86 72 68 60 62 75 85 90 82 70
68 74 75 70 72 72 78 87 91 84 91 98 92 65 53 61 68 76 80 84 88 90 88 90 93 95 97 97 97 98 98 99 94 74 60 58 62 65 67 75 77 71 69 74
86 88 82 85 86 98 99 99 98 98 98 84 85 77 62 60 78 90 79 79 86 92 94 95 97 97 99 98 98 98 96 74 59 56 57 59 56 55 58 62 68 70 69 74
99 98 99 94 98 99 95 100 92 100 81 99 67 84 84 71 75 78 82 76 77 81 100 100 98 99 98 98 97 96 82 76 72 66 59 52 51 49 51 54 58 68 78 84
99 98 99 97 91 92 86 87 74 67 81 100 76 84 79 86 84 82 84 84 87 85 97 99 99 97 97 97 96 96 96 83 74 59 54 50 48 49 50 56 70 81 86 87
100 100 99 97 98 98 97 67 63 62 67 78 86 95 90 74 70 73 83 83 94 100 99 98 97 97 96 96 96 96 94 72 61 54 52 52 49 50 57 66 78 86 90 89
99 100 99 97 99 93 61 63 66 73 84 90 94 93 86 85 78 84 88 95 100 99 98 97 96 95 95 95 94 93 68 59 54 50 46 48 52 59 70 83 92 93 93 92
83 100 98 98 98 81 70 69 69 77 94 98 95 92 93 72 87 100 100 98 97 98 97 96 95 95 95 95 94 77 61 54 47 47 51 56 62 71 85 95 95 96 95 94
82 95 99 98 98 94 73 72 83 100 100 94 93 92 88 76 92 97 97 96 96 96 96 97 96 95 95 96 90 75 60 52 52 54 60 67 72 84 93 97 96 97 97 97
97 98 97 99 98 96 82 76 100 98 88 85 87 96 99 93 96 97 96 95 96 95 95 96 95 95 95 95 95 89 60 56 63 68 74 77 85 94 96 98 98 98 98 97
95 90 98 95 98 94 88 97 98 96 96 94 97 96 99 94 96 96 96 94 95 94 94 96 94 94 95 94 88 75 59 66 72 78 83 90 96 98 98 98 100 96 81 58
98 96 91 100 91 95 96 97 98 96 97 98 97 97 96 96 96 96 93 94 94 95 95 95 94 94 92 86 73 64 67 78 86 92 96 97 100 100 99 96 80 57 39 31
99 99 98 97 90 96 96 97 94 96 99 96 95 95 94 95 96 94 93 94 93 91 85 77 71 70 71 69 71 74 85 92 97 98 99 99 100 100 96 78 52 35 28 25
98 96 96 96 99 99 97 95 96 96 96 95 95 95 95 94 93 87 82 76 68 61 60 62 64 66 73 78 88 95 98 98 100 100 100 99 99 98 93 68 42 30 28 37
95 86 99 96 96 96 96 95 96 96 95 95 96 94 93 89 82 74 72 72 72 73 74 75 80 85 91 95 98 100 100 99 98 98 100 100 99 98 89 61 36 32 39 47
Wind_Speed
8 7 9 9 12 11 13 17 18 24 17 30 27 20 14 20 17 15 18 16 14 14 13 12 11 9 9 9 11 13 14 15 16 16 16 15 14 14 14 12 11 11 10 12
9 7 10 10 12 12 15 16 18 17 26 29 22 22 11 13 15 15 17 16 14 14 13 12 10 9 9 9 11 13 14 14 14 14 14 14 14 14 14 15 15 16 17 18
9 8 11 11 13 14 16 12 23 23 30 25 17 12 9 12 11 13 14 17 15 14 13 12 9 7 7 9 12 13 14 13 13 13 13 15 15 15 15 15 17 18 18 19
6 10 12 12 12 16 18 17 26 27 21 8 17 7 15 12 15 12 15 17 17 16 16 13 10 8 7 8 11 13 13 13 13 15 16 17 17 17 19 20 22 24 24 23
10 12 13 13 11 15 16 21 26 24 13 13 9 4 12 25 14 12 16 19 19 18 17 15 14 13 12 11 12 13 14 15 15 15 16 17 18 20 22 24 26 27 28 30
12 15 13 9 11 17 17 24 23 12 6 4 4 3 20 12 12 16 16 21 22 21 20 19 19 17 14 13 13 14 16 18 19 19 20 20 20 22 24 26 28 30 31 32
14 13 10 10 12 18 13 17 7 3 2 4 6 5 19 13 24 21 18 22 25 23 22 22 22 19 15 14 14 16 20 21 23 23 24 23 24 25 27 29 31 33 34 37
7 7 9 8 17 14 15 9 4 6 6 12 15 8 4 16 27 22 22 21 24 24 24 26 24 21 21 20 21 24 26 28 27 26 27 28 29 30 32 33 34 36 37 37
7 6 11 22 18 11 7 7 9 7 11 7 6 9 18 15 12 16 21 21 25 26 27 28 25 22 26 28 30 33 33 29 29 27 29 30 32 34 35 37 37 38 39 39
13 11 17 18 13 14 12 12 4 5 4 10 16 29 17 17 21 26 23 22 25 27 28 28 26 28 28 30 37 35 26 26 29 30 32 34 36 37 38 40 41 40 41 41
16 16 13 15 17 20 16 13 10 10 8 4 9 12 19 28 27 19 23 23 23 24 28 29 29 31 29 37 34 34 31 30 32 35 37 38 37 39 41 42 42 42 42 42
20 18 16 22 25 26 21 18 15 11 9 11 11 27 30 17 29 32 29 22 22 26 30 33 34 36 40 37 34 36 30 29 32 35 35 36 39 41 43 42 42 42 43 43
15 12 12 9 12 15 16 16 20 27 24 20 11 19 27 38 37 35 32 33 33 32 32 36 40 42 44 37 35 29 30 32 31 32 35 39 41 41 41 41 41 42 43 42
24 24 24 23 29 32 25 27 25 27 15 28 34 46 47 32 37 33 39 36 35 35 35 40 42 47 45 35 29 28 28 28 30 35 38 39 38 38 39 40 42 43 43 42
31 36 37 41 40 40 42 40 40 36 46 28 46 42 37 33 29 31 34 33 32 34 38 43 45 44 35 30 27 24 27 31 36 36 35 35 35 37 39 41 43 42 41 38
34 36 38 43 36 34 40 35 38 36 36 39 36 38 31 29 34 38 36 33 33 30 34 41 41 32 29 28 26 28 31 33 33 32 32 34 36 39 41 42 41 39 36 33
37 39 28 31 22 27 26 26 14 20 21 21 24 22 27 34 31 32 29 32 33 32 33 30 28 28 26 27 29 30 30 29 30 32 34 35 38 40 40 39 37 34 31 29
38 40 31 25 23 9 18 14 24 25 26 19 21 27 29 27 35 31 32 29 26 22 22 24 26 27 29 30 29 27 28 30 32 34 36 37 38 38 37 35 32 30 28 28
25 35 23 12 18 26 33 16 11 16 20 27 28 23 23 36 31 26 24 21 18 21 24 24 26 28 30 31 29 29 30 32 34 35 37 37 37 36 34 31 28 27 27 26
22 25 33 18 8 5 16 22 23 21 18 23 19 26 34 37 25 23 22 22 24 26 27 26 28 31 32 31 30 31 33 35 36 37 36 36 36 33 31 29 27 27 26 26
15 14 25 32 17 14 22 24 23 10 13 21 39 31 26 23 23 23 24 28 32 31 29 32 34 34 32 32 32 33 36 38 37 36 35 35 34 31 30 28 27 27 27 27
22 10 13 14 11 11 20 14 16 25 28 31 26 24 23 23 24 25 27 30 31 33 34 33 33 33 33 33 34 37 40 40 39 37 36 34 32 30 30 29 28 28 28 28
17 18 14 15 19 22 21 27 18 20 21 20 22 23 23 22 25 29 33 33 32 32 33 34 35 35 36 37 39 40 40 40 38 37 35 33 31 31 30 29 29 29 29 29
20 25 15 19 26 26 24 21 22 21 22 24 23 24 26 25 25 26 27 29 31 33 35 37 38 39 40 41 42 42 41 40 38 36 34 33 32 30 30 30 30 30 30 29
30 29 29 32 32 26 26 22 24 23 22 21 19 20 22 24 27 30 32 34 35 37 39 40 42 42 42 43 41 40 39 39 36 34 33 33 32 31 31 31 31 31 29 28
28 33 29 23 22 22 23 25 23 22 20 20 22 24 27 30 33 35 37 39 41 41 41 42 42 42 41 40 38 36 36 37 35 33 33 34 33 31 31 31 31 30 28 27
Wind_Direction
335 330 342 344 351 348 341 338 331 337 327 324 325 322 296 271 276 270 255 256 258 255 258 257 260 267 275 289 304 313 318 321 323 324 326 330 334 335 336 339 339 333 325 319
326 302 332 331 343 342 341 336 337 335 324 327 330 335 286 280 285 268 254 253 254 252 248 245 250 259 273 292 299 313 320 319 316 320 321 323 326 326 324 325 328 329 329 327
317 302 321 322 332 332 338 325 333 326 328 327 336 339 326 318 292 274 263 251 252 246 238 234 236 248 276 292 297 304 314 314 313 313 314 314 312 309 306 308 313 316 316 316
308 314 312 314 322 328 333 330 333 324 324 305 325 300 322 323 321 283 269 254 248 242 233 231 238 253 274 297 306 299 303 307 306 303 305 305 303 303 303 306 309 310 307 305
299 310 302 303 311 322 318 328 328 315 307 305 296 280 310 317 315 300 274 257 250 243 239 242 251 260 274 297 307 295 294 297 298 300 301 301 302 303 303 303 304 303 303 306
293 307 295 290 305 323 317 330 324 311 310 256 251 271 305 301 320 312 280 257 251 247 244 248 256 262 275 294 302 298 293 294 294 294 299 299 298 303 304 306 306 305 303 303
304 303 287 281 305 320 318 338 310 287 253 302 279 260 286 293 324 314 292 264 253 251 253 255 260 271 279 291 303 304 299 296 294 294 297 297 296 299 301 304 304 303 302 302
290 292 292 292 306 295 309 328 290 295 303 305 292 238 279 310 314 303 303 280 255 252 257 258 262 271 275 285 292 302 305 296 287 287 291 296 296 298 300 299 298 298 298 298
291 256 286 299 299 274 300 289 286 272 282 285 245 277 297 301 315 315 315 296 270 259 262 262 261 275 289 290 295 302 303 291 280 280 287 292 294 296 295 295 294 293 293 293
280 278 291 287 280 274 278 281 266 243 281 294 289 298 278 308 315 316 312 300 278 266 270 265 262 283 285 292 298 298 294 286 277 276 283 288 290 291 292 291 290 291 291 291
284 279 279 274 278 285 273 247 250 249 244 271 294 299 304 300 308 314 313 302 283 279 268 261 268 273 276 292 291 287 281 274 272 277 284 288 289 289 288 288 288 289 291 294
283 275 261 274 276 275 262 252 243 232 258 231 269 273 293 312 311 310 316 303 285 279 271 269 267 270 274 293 286 284 283 286 283 282 289 289 287 287 288 289 290 292 293 295
283 267 289 279 265 266 264 266 261 256 255 244 255 266 298 303 313 309 311 304 293 283 271 266 268 267 288 288 287 282 282 283 286 290 287 286 287 289 290 291 292 293 294 294
276 261 249 257 272 285 274 279 271 261 240 262 252 279 299 321 311 308 309 305 296 288 274 272 271 272 284 279 275 278 284 287 290 289 287 288 290 290 291 291 291 293 294 295
264 272 276 279 281 286 285 282 282 261 275 253 290 286 288 315 309 305 305 301 294 286 275 273 275 278 277 273 271 279 286 291 292 289 289 290 292 293 292 292 292 293 294 293
293 282 288 286 289 289 286 282 289 289 283 263 286 285 319 308 302 300 296 294 293 285 277 272 272 270 264 267 277 287 292 292 292 291 293 295 295 294 294 293 293 293 292 291
288 277 266 268 280 283 287 294 274 284 285 289 284 296 291 304 308 305 299 299 297 290 277 268 263 269 279 289 293 295 297 296 296 296 296 296 296 296 294 293 293 292 290 288
274 270 265 270 279 258 277 282 296 288 285 276 283 296 299 307 316 308 304 302 291 272 264 268 281 292 297 297 298 300 299 298 298 298 298 296 296 294 293 292 290 288 286 284
262 259 257 255 248 266 286 276 278 283 287 289 296 298 302 318 313 308 297 275 261 264 274 286 295 300 301 300 301 298 298 299 299 299 299 298 297 295 292 290 288 285 282 281
271 260 245 251 238 249 270 294 280 282 271 280 296 295 304 316 303 290 282 271 278 292 295 295 299 301 301 299 296 293 294 296 298 299 299 298 296 293 290 287 285 281 280 280
268 269 244 253 254 257 272 277 276 267 278 287 304 296 300 300 295 292 293 291 293 299 299 304 306 302 298 293 292 296 297 297 297 299 300 297 294 290 287 285 283 282 281 281
287 265 264 269 238 254 260 254 269 282 291 295 287 291 295 294 296 299 302 302 302 303 304 306 305 302 301 301 301 301 301 301 301 300 296 293 290 287 285 285 284 283 282 281
263 253 251 254 263 265 275 292 290 291 290 291 294 294 294 297 299 301 301 300 301 304 305 305 304 303 302 300 298 299 300 299 297 295 292 289 286 285 284 285 285 284 282 281
262 263 261 290 274 279 283 286 287 298 307 303 301 303 307 309 309 308 307 306 305 305 304 302 300 299 299 300 300 299 297 295 293 291 288 284 282 283 284 284 284 283 282 279
272 272 281 283 274 268 281 291 302 304 304 306 309 312 313 309 306 305 304 304 302 299 296 295 296 296 296 295 295 295 293 292 290 288 285 283 282 283 283 284 284 282 279 276
277 286 285 276 276 288 298 305 309 311 314 313 311 308 307 305 304 303 301 299 298 297 298 298 298 297 296 295 295 294 291 289 289 288 286 284 283 283 283 283 282 281 276 272